Waarnemingen

Advertentie
Mijn weer
P11-B, Nederland (6203): temperatuur & dauwpunt: 20.05.2018 23:00:00 - 26.05.2018 23:00:00 (CEST)P11-B, Nederland (6203): windsnelheid & windstoten: 20.05.2018 23:00:00 - 26.05.2018 23:00:00 (CEST)P11-B, Nederland (6203): windrichting: 20.05.2018 23:00:00 - 26.05.2018 23:00:00 (CEST)P11-B, Nederland (6203): luchtdruk: 20.05.2018 23:00:00 - 26.05.2018 23:00:00 (CEST)P11-B, Nederland (6203): zicht: 20.05.2018 23:00:00 - 26.05.2018 23:00:00 (CEST)
Datum & Tijd tt [°C] td [°C] ff [km/u] ff [kn] fx [km/u] fx [kn] dd ppp [hPa] vv [km]
26.05.2018 23:00:00 16,3 14,2 43 23 47 25 NO 1019,6 14
26.05.2018 22:00:00 16,3 13,8 52 28 50 27 NO 1019,6 10
26.05.2018 21:00:00 15,7 13,5 48 26 47 25 NO 1019,2 10
26.05.2018 20:00:00 15,4 13,3 50 27 47 25 NO 1019,2 10
26.05.2018 19:00:00 14,9 12,8 48 26 43 23 NNO 1019,4 10
26.05.2018 18:00:00 14,9 12,6 44 24 43 23 NO 1019,8 10
26.05.2018 17:00:00 15,1 12,6 44 24 43 23 NO 1020,1 10
26.05.2018 16:00:00 15,0 12,5 42 23 43 23 NO 1020,4 10
26.05.2018 15:00:00 15,4 12,4 42 23 40 21 NO 1020,6 10
26.05.2018 14:00:00 15,2 12,1 42 23 40 21 NO 1020,7 10
26.05.2018 13:00:00 14,4 12,0 41 22 40 21 NO 1020,8 10
26.05.2018 12:00:00 14,0 11,9 41 22 40 21 NO 1020,8 10
26.05.2018 11:00:00 14,3 11,9 39 21 40 21 NO 1020,5 10
26.05.2018 10:00:00 14,5 11,9 37 20 36 19 NO 1020,2 10
26.05.2018 09:00:00 14,7 12,3 31 17 32 18 ONO 1020,1 10
26.05.2018 08:00:00 15,5 13,0 31 17 32 18 ONO 1019,8 10
26.05.2018 07:00:00 15,9 13,9 28 15 32 18 ONO 1019,6 10
26.05.2018 06:00:00 16,4 14,4 35 19 32 18 ONO 1019,3 10
26.05.2018 05:00:00 16,8 14,2 35 19 32 18 ONO 1019,0 10
26.05.2018 04:00:00 17,0 14,2 37 20 36 19 ONO 1019,2 10
26.05.2018 03:00:00 16,4 13,7 37 20 36 19 NO 1019,4 10
26.05.2018 02:00:00 16,9 13,8 37 20 36 19 NO 1019,3 10
26.05.2018 01:00:00 14,6 12,9 28 15 32 18 NO 1019,4 8
26.05.2018 00:00:00 14,2 12,8 24 13 25 14 NNO 1019,5 8
25.05.2018 23:00:00 13,2 12,7 13 7 18 10 NNO 1019,7 10
25.05.2018 22:00:00 11,9 11,8 15 8 18 10 N 1019,3 2,7
25.05.2018 21:00:00 10,8 10,8 13 7 14 8 N 1019,0 2,3
25.05.2018 20:00:00 11,0 11,0 11 6 11 6 NW 1019,1 8
25.05.2018 19:00:00 11,3 11,2 5 3 11 6 WNW 1019,0 0,3
25.05.2018 18:00:00 11,6 11,6 8 4 11 6 W 1019,2 0,5
25.05.2018 17:00:00 11,9 11,8 5 3 11 6 - 1019,6 0,5
25.05.2018 16:00:00 12,1 12,0 11 6 14 8 ZW 1019,5 0,1
25.05.2018 15:00:00 12,4 12,4 11 6 14 8 ZZW 1019,0 0,1
25.05.2018 14:00:00 12,7 12,7 15 8 18 10 Z 1018,9 0,1
25.05.2018 13:00:00 12,8 12,8 15 8 18 10 ZO 1018,8 0,1
25.05.2018 12:00:00 13,0 13,0 16 9 18 10 ZO 1018,5 0,1
25.05.2018 11:00:00 13,2 13,1 16 9 22 12 ZZO 1018,2 0,2
25.05.2018 10:00:00 14,5 14,0 24 13 22 12 OZO 1017,8 2,6
25.05.2018 09:00:00 13,7 13,4 24 13 25 14 O 1017,5 2,5
25.05.2018 08:00:00 14,2 13,8 22 12 29 16 O 1016,9 3,1
25.05.2018 07:00:00 14,7 14,0 34 18 32 18 O 1016,7 5
25.05.2018 06:00:00 14,8 13,6 29 16 29 16 O 1016,6 6
25.05.2018 05:00:00 15,9 14,3 28 15 29 16 ONO 1016,5 8
25.05.2018 04:00:00 14,3 13,8 18 10 22 12 NO 1016,4 4,8
25.05.2018 03:00:00 14,9 14,2 13 7 18 10 ONO 1016,6 3,0
25.05.2018 02:00:00 14,9 13,8 21 11 29 16 OZO 1017,1 7
25.05.2018 01:00:00 15,7 13,1 29 16 29 16 O 1017,1 10
25.05.2018 00:00:00 15,4 13,0 29 16 32 18 ONO 1017,1 10
24.05.2018 23:00:00 15,0 12,7 29 16 40 21 NO 1017,0 15
24.05.2018 22:00:00 16,4 12,4 34 18 36 19 NO 1017,1 10
24.05.2018 21:00:00 15,2 12,1 22 12 29 16 NO 1017,2 10
24.05.2018 20:00:00 14,3 12,5 31 17 36 19 NNO 1017,1 10
24.05.2018 19:00:00 13,1 12,1 16 9 36 19 N 1017,4 10
24.05.2018 18:00:00 13,2 12,4 24 13 25 14 NNO 1017,9 10
24.05.2018 17:00:00 13,8 12,7 26 14 29 16 NNO 1018,3 9
24.05.2018 16:00:00 14,1 12,6 25 14 29 16 NO 1019,1 11
24.05.2018 15:00:00 14,0 11,6 34 18 32 18 NO 1019,3 10
24.05.2018 14:00:00 14,6 11,0 39 21 36 19 NO 1019,6 10
24.05.2018 13:00:00 14,0 11,1 35 19 36 19 NO 1020,0 10
24.05.2018 12:00:00 13,9 10,9 35 19 36 19 NO 1020,4 10
24.05.2018 11:00:00 14,0 10,9 37 20 36 19 NO 1020,5 10
24.05.2018 10:00:00 14,0 10,5 41 22 40 21 NO 1020,9 10
24.05.2018 09:00:00 13,9 10,6 41 22 40 21 NO 1020,9 10
24.05.2018 08:00:00 13,9 10,8 41 22 40 21 NO 1020,9 10
24.05.2018 07:00:00 13,9 11,0 39 21 36 19 NO 1021,0 10
24.05.2018 06:00:00 14,3 11,2 41 22 43 23 NO 1020,8 10
24.05.2018 05:00:00 14,1 11,4 44 24 43 23 NO 1021,0 10
24.05.2018 04:00:00 13,7 11,7 42 23 40 21 NO 1021,2 10
24.05.2018 03:00:00 13,4 11,7 44 24 43 23 NO 1021,5 10
24.05.2018 02:00:00 13,5 11,6 46 25 43 23 NO 1021,8 10
24.05.2018 01:00:00 13,8 11,5 46 25 43 23 NO 1021,9 10
24.05.2018 00:00:00 13,9 11,5 48 26 47 25 NO 1021,8 10
23.05.2018 23:00:00 13,8 11,4 48 26 47 25 NO 1021,8 10
23.05.2018 22:00:00 14,0 11,1 50 27 47 25 NO 1021,5 10
23.05.2018 21:00:00 13,8 10,8 48 26 47 25 NNO 1021,0 10
23.05.2018 20:00:00 13,7 10,6 48 26 47 25 NNO 1020,9 10
23.05.2018 19:00:00 13,2 10,7 39 21 40 21 NNO 1020,9 10
23.05.2018 18:00:00 13,0 11,0 31 17 36 19 NNO 1021,0 10
23.05.2018 17:00:00 12,7 11,1 28 15 32 18 N 1021,2 10
23.05.2018 16:00:00 12,8 11,0 28 15 29 16 N 1021,5 10
23.05.2018 15:00:00 12,9 10,9 24 13 32 18 NNO 1021,8 10
23.05.2018 14:00:00 13,0 11,0 28 15 32 18 NNO 1021,8 10
23.05.2018 13:00:00 12,7 11,0 29 16 32 18 NNO 1021,7 10
23.05.2018 12:00:00 12,6 11,0 28 15 29 16 NNO 1021,7 10
23.05.2018 11:00:00 12,6 10,9 22 12 29 16 NNO 1021,4 10
23.05.2018 10:00:00 12,8 11,0 26 14 29 16 N 1021,0 10
23.05.2018 09:00:00 12,3 10,9 22 12 29 16 N 1020,4 10
23.05.2018 08:00:00 12,3 10,9 22 12 29 16 N 1020,2 15
23.05.2018 07:00:00 12,0 10,6 18 10 32 18 N 1019,4 10
23.05.2018 06:00:00 12,2 10,5 21 11 40 21 N 1018,9 10
23.05.2018 05:00:00 12,3 10,5 21 11 32 18 N 1018,5 10
23.05.2018 04:00:00 12,1 10,5 24 13 36 19 N 1018,3 10
23.05.2018 03:00:00 12,1 10,5 25 14 32 18 NNW 1018,1 15
23.05.2018 02:00:00 12,5 10,5 29 16 32 18 NNW 1017,9 10
23.05.2018 01:00:00 12,6 10,1 22 12 32 18 NNW 1018,2 10
23.05.2018 00:00:00 12,9 10,1 29 16 32 18 N 1017,9 10
22.05.2018 23:00:00 12,8 10,3 24 13 36 19 N 1017,9 10
22.05.2018 22:00:00 12,4 10,7 31 17 40 21 N 1016,9 10
22.05.2018 21:00:00 12,4 10,8 24 13 36 19 N 1016,4 10
22.05.2018 20:00:00 12,9 10,6 29 16 36 19 N 1016,2 10
22.05.2018 19:00:00 13,1 10,4 35 19 36 19 NNO 1015,7 10
22.05.2018 18:00:00 12,8 11,0 21 11 25 14 N 1015,5 10
22.05.2018 17:00:00 12,6 11,3 18 10 25 14 N 1015,1 10
22.05.2018 16:00:00 12,6 11,3 15 8 25 14 N 1015,1 10
22.05.2018 15:00:00 12,5 11,3 13 7 22 12 - 1015,0 10
22.05.2018 14:00:00 12,6 11,3 22 12 25 14 NNO 1014,8 10
22.05.2018 13:00:00 12,3 11,1 11 6 14 8 - 1014,4 10
22.05.2018 12:00:00 12,3 11,1 13 7 14 8 NNO 1014,2 10
22.05.2018 11:00:00 12,6 11,1 4 2 14 8 - 1013,8 10
22.05.2018 10:00:00 12,6 11,0 21 11 22 12 NNO 1013,7 10
22.05.2018 09:00:00 12,8 11,1 9 5 18 10 NNO 1013,3 10
22.05.2018 08:00:00 12,7 11,4 18 10 22 12 NNO 1013,1 10
22.05.2018 07:00:00 12,6 11,1 15 8 18 10 NNO 1013,0 10
22.05.2018 06:00:00 12,8 11,0 16 9 22 12 NNO 1012,7 10
22.05.2018 05:00:00 14,1 10,8 16 9 22 12 NNO 1012,7 10
22.05.2018 04:00:00 14,3 10,6 9 5 18 10 NNO 1012,5 10
22.05.2018 03:00:00 17,6 10,4 9 5 14 8 W 1012,4 10
22.05.2018 02:00:00 16,3 10,3 9 5 14 8 O 1012,9 10
22.05.2018 01:00:00 15,9 10,6 21 11 40 21 O 1013,3 10
22.05.2018 00:00:00 14,3 11,2 37 20 36 19 NO 1012,9 10
21.05.2018 23:00:00 14,0 11,2 42 23 40 21 NNO 1013,0 10
21.05.2018 22:00:00 13,9 11,0 29 16 40 21 NNO 1013,0 10
21.05.2018 21:00:00 14,0 10,9 41 22 43 23 NNO 1013,0 10
21.05.2018 20:00:00 14,3 11,0 42 23 43 23 NNO 1013,1 10
21.05.2018 19:00:00 14,0 10,7 41 22 43 23 NNO 1013,4 10
21.05.2018 18:00:00 13,9 10,6 44 24 43 23 NNO 1013,7 10
21.05.2018 17:00:00 14,3 10,4 42 23 40 21 NNO 1014,2 10
21.05.2018 16:00:00 14,4 10,5 39 21 36 19 NNO 1014,8 10
21.05.2018 15:00:00 13,2 10,5 22 12 29 16 NNO 1015,4 10
21.05.2018 14:00:00 13,3 9,8 31 17 29 16 NO 1016,0 10
21.05.2018 13:00:00 14,2 9,7 29 16 29 16 NO 1016,4 10
21.05.2018 12:00:00 13,3 10,0 28 15 29 16 NO 1016,9 10
21.05.2018 11:00:00 13,7 9,7 29 16 29 16 ONO 1017,0 10
21.05.2018 10:00:00 13,6 9,6 31 17 32 18 ONO 1017,2 10
21.05.2018 09:00:00 14,1 9,1 34 18 36 19 ONO 1017,4 10
21.05.2018 08:00:00 13,9 9,4 28 15 32 18 ONO 1017,8 10
21.05.2018 07:00:00 13,5 9,5 37 20 32 18 ONO 1017,8 10
21.05.2018 06:00:00 13,8 9,5 34 18 32 18 ONO 1018,0 10
21.05.2018 05:00:00 13,9 9,7 31 17 29 16 ONO 1018,3 10
21.05.2018 04:00:00 12,7 10,9 13 7 18 10 ONO 1018,7 10
21.05.2018 03:00:00 13,2 10,7 21 11 25 14 NO 1019,1 10
21.05.2018 02:00:00 12,4 10,4 31 17 32 18 NO 1019,5 10
21.05.2018 01:00:00 12,1 10,1 28 15 29 16 NNO 1019,8 10
21.05.2018 00:00:00 12,0 10,8 26 14 32 18 NNO 1020,1 10
20.05.2018 23:00:00 11,7 11,2 26 14 29 16 NNO 1020,7 8

tt = temperatuur
td = dauwpunt
ff = windsnelheid
fx = windstoten
dd = windrichting
ppp = luchtdruk
vv = zicht

Weerstations in de omgeving